www.pogodaiklimat.ru

Архив погоды в Нерюнгри (Якутия, Россия)

Время
(UTC), дата
09 9.07
12 9.07
15 9.07
18 9.07
21 9.07
00 10.07
03 10.07
06 10.07
09 10.07
12 10.07
15 10.07
18 10.07
21 10.07
00 11.07
03 11.07
06 11.07
09 11.07
12 11.07
15 11.07
18 11.07
21 11.07
00 12.07
03 12.07
06 12.07
09 12.07
12 12.07
15 12.07
18 12.07
21 12.07
00 13.07
03 13.07
06 13.07
09 13.07
12 13.07
15 13.07
18 13.07
21 13.07
00 14.07
03 14.07
06 14.07
09 14.07
12 14.07
15 14.07
18 14.07
21 14.07
00 15.07
03 15.07
06 15.07
09 15.07
12 15.07
15 15.07
18 15.07
21 15.07
00 16.07
03 16.07
Ветер
(напр.,м/с)
Видим. Явления Облачность Т
(С)
Тd
(С)
f
(%)
Тe
(С)
Тes
(С)
Комфортность P
(гПа)
Po
(гПа)
Тmin
(С)
Tmax
(С)
R
(мм)
R24
(мм)
S
(см)
СВ 1 10 км дым 4/0
[Ci fib]
+26.6 +4.7 25 +26 +30 жарко 1001.6 909.7
В 2 50 км 8/0
[Ci fib]
+21.1 +2.5 29 +21 +21 комфорт 1004.0 910.2 +27.7
СВ 1 20 км дым 4/0
[Ci fib]
+15.7 +4.2 46 +17 +17 тепло 1006.5 910.9
В 1 20 км дым 6/0
[Ac trans Ci fib]
+13.2 +4.7 56 +14 +14 тепло 1007.8 911.2
СВ 1 2000 м мгла 10/0
[Ac trans Ci]
+10.9 +5.1 67 +11 +12 тепло 1008.6 911.3
СВ 2 2000 м мгла 10/0
[Ac trans Ci]
+14.3 +7.1 62 +14 +19 по сезону 1007.4 911.3 +10.9
В 2 2000 м мгла 10/0
[Ac trans Ci]
+21.1 +7.7 42 +22 +31 комфорт 1004.6 910.8
СЗ 2 10 км дым 6/3 1000 м
[Cu hum Ci fib]
+26.7 +6.6 28 +26 +34 жарко 1000.9 909.1
СВ 3 50 км 6/0
[Ac trans Ci fib]
+26.6 +6.0 27 +26 +28 жарко 999.9 908.1
СВ 3 10 км дым 8/0
[Ac trans Ci fib]
+19.1 +7.8 48 +20 +20 тепло 1003.4 909.2 +28.0
С 2 20 км дым 8/0
[Ac trans Ci fib]
+11.8 +7.4 74 +11 +11 прохладно 1007.3 910.4
СВ 1 20 км дым 10/0
[Ac trans Ci]
+10.8 +7.5 80 +11 +11 по сезону 1007.6 910.3
СВ 1 10 км дым 10/0
[Ac trans Ci]
+9.4 +7.7 89 +9 +10 холодно 1008.6 910.8
С 1 10 км дым 10/0
[Ci fib]
+16.3 +9.2 63 +17 +25 тепло 1006.2 910.9 +8.8
В 1 10 км дым 8/3 1000 м
[Sc Ci fib]
+22.7 +9.4 43 +24 +35 комфорт 1003.4 910.3
СВ 3 20 км дым 8/4 1000 м
[Sc Ci fib]
+25.3 +7.9 33 +25 +31 комфорт 1002.1 909.8
В 3 20 км дым 6/3 1500 м
[Sc Ci fib]
+24.0 +8.1 36 +24 +26 комфорт 1002.3 909.6
В 2 20 км дым 5/0
[Ci fib]
+19.5 +7.8 47 +21 +21 комфорт 1004.5 910.3 +25.8
ЮВ 2 50 км 5/0
[Ci fib]
+16.4 +8.4 59 +17 +17 тепло 1006.0 910.7
СЗ 1 50 км 8/0
[Ci fib]
+12.3 +8.3 77 +12 +12 по сезону 1008.3 911.5
штиль 0 10 км дым 8/0
[Ci fib]
+11.9 +8.7 81 +11 +13 по сезону 1008.7 911.7
ЮВ 1 10 км дым 8/0
[Ci fib]
+17.5 +10.1 62 +19 +26 тепло 1006.3 911.4 +10.5
В 1 2000 м мгла 10/0
[Ci]
+23.3 +9.2 41 +25 +39 комфорт 1003.5 910.6
ЮВ 2 10 км дым 10/3 1000 м
[Cb cap Ci]
+25.4 +7.6 32 +25 +32 комфорт 1001.7 909.5
В 3 10 км дым 10/3 1000 м
[Cb cap Ci]
+25.2 +7.9 33 +25 +27 комфорт 1001.0 908.8
ЮВ 4 10 км дым 8/0
[Ci fib]
+22.6 +7.9 39 +24 +24 комфорт 1002.0 909.0 +26.5
Ю 4 20 км дым 10/6 800 м
[Sc Ac und]
+18.2 +9.4 56 +18 +18 тепло 1004.2 909.7
Ю 4 2000 м мгла 10 баллов +15.9 +8.6 62 +15 +15 тепло 1005.3 909.9
Ю 3 2000 м мгла 10/0
[Ac trans Ci]
+15.5 +7.0 57 +15 +16 тепло 1006.0 910.4
Ю 5 {11} 2000 м мгла 10/5 600 м
[Cb cap Ac und]
+16.7 +6.0 49 +16 +17 по сезону 1005.4 910.2 +14.6
Ю 5 {10} 2000 м мгла 10/5 600 м
[Cb cap Ac und]
+17.5 +8.5 55 +17 +18 по сезону 1006.9 911.9
ЮВ 6 {10} 2000 м мгла 10/5 600 м
[Cb cap Ac und]
+16.9 +10.7 67 +16 +17 прохладно 1007.4 912.2
Ю 7-11 {13} 2000 м мгла 10/4 600 м
[Cb cap Ac trans Ci]
+17.9 +8.8 55 +17 +17 по сезону 1006.8 911.9
ЮВ 4 {13} 2000 м мгла 10/4 600 м
[Cb cap Ac und]
+15.8 +8.1 60 +15 +15 прохладно 1007.6 911.9 +18.7
ЮВ 3 2000 м мгла 10/6 700 м
[Cb cap Ac und]
+16.1 +6.8 54 +16 +16 по сезону 1006.8 911.3
ЮВ 4 2000 м ливневой дождь 10/8 630 м
[Cb cap Ac und]
+11.8 +10.7 93 +10 +10 по сезону 1009.2 912.2
ЮВ 6 2000 м ливневой дождь 10/10 270 м
[Cb cap]
+12.2 +11.0 92 +9 +9 прохладно 1007.7 911.0
ЮВ 5 10 км в посл. час ливневой дождь 10/9 630 м
[Cb cap Ac trans]
+13.9 +11.0 83 +12 +12 прохладно 1006.4 910.4 +11.6 9
ЮВ 3 {12} 10 км дым {ливн. дождь} 10/10 500 м
[Cb cap]
+14.2 +11.0 81 +13 +13 прохладно 1005.9 910.0
Ю 4 {12} 2000 м мгла {ливн. дождь} 10/10 420 м
[Cb cap]
+13.8 +11.3 85 +12 +12 очень холодно 1005.2 909.3
ЮВ 5 10 км дым {ливн. дождь} 10/10 600 м
[Cb cap]
+13.8 +11.6 87 +12 +12 холодно 1005.0 909.1
ЮВ 4 10 км дым {ливн. дождь} 10/10 330 м
[Cb cap]
+13.4 +12.0 91 +12 +12 холодно 1004.8 908.8 +14.5 0.4
В 2 20 км слаб. ливневой дождь 10/10 300 м
[Cb cap]
+13.1 +12.3 95 +12 +12 прохладно 1003.7 907.7
штиль 0 500 м ливневой дождь {туман} туман ?/? +12.3 +12.0 98 +12 +12 по сезону 1002.4 906.2
ЮВ 2 500 м слаб. ливневой дождь {туман} ?/? +13.8 +13.5 98 +13 +13 по сезону 1000.9 905.5
ЮЗ 3 1000 м в посл. час ливневой снег {туман} 10/10 30 м
[Cb cap]
+14.5 +14.2 98 +13 +13 по сезону 1000.2 905.0 +12.3 16
С 2 20 км 10/10 240 м
[Cb cap]
+16.2 +14.8 91 +16 +16 по сезону 999.5 905.0
С 1 10 км дым 10/6 450 м
[Cb cap Ac und]
+16.3 +13.9 86 +17 +19 прохладно 1000.8 906.1
СЗ 2 2000 м дымка {ливн. дождь} 10/10 180 м
[Cb cap]
+15.7 +14.3 91 +16 +16 прохладно 1001.6 906.7
штиль 0 2000 м мгла {ливн. дождь} 10/0
[Ac trans Ci]
+14.2 +13.6 96 +14 +14 прохладно 1003.0 907.5 +17.4 0.3
З 1 1000 м мгла 10/0
[Ac trans Ci]
+14.2 +13.6 96 +14 +14 по сезону 1002.8 907.3
штиль 0 500 м туман, небо не видно {мгла} ?/? +13.1 +12.8 98 +13 +13 по сезону 1003.0 907.1
штиль 0 200 м туман, небо не видно {мгла} ?/? +12.9 +12.6 98 +12 +12 по сезону 1003.3 907.3
СВ 1 1000 м в посл. час туман {мгла} 10/10 180 м
[Cb cap]
+15.4 +12.9 85 +16 +16 тепло 1002.3 907.2 +12.3 0.0
С 1 2000 м мгла 10/10 270 м
[Cb cap]
+18.9 +12.4 66 +21 +21 комфорт 1000.6 906.7
Местоположение метеостанции Нерюнгри (Якутия, Россия): широта 56.83 долгота 124.86 высота над уровнем моря 858 м.
В архиве по умолчанию представлена погода в Нерюнгри за последнюю неделю. Архивные данные за месяц целиком и за предыдущие месяцы, начиная с января 2011 года, Вы можете получить, выбрав интересующий диапазон дат из раскрывающегося списка и нажав кнопку "Найти!".
*Определитесь, кто Вы:
Внимание! Время в таблицах - всемирное. Для получения местного времени необходимо прибавить поправку, которая равна 9 ч.
Некоторые строки с данными для отдельных станций могут быть выделены курсивом. Это означает, что фактические данные отсутствуют по различным причинам, а приведенные значения являются расчетными модельными данными для данного пункта наблюдений.
Смотрите также архив погоды в соседних городах и на ближайших метеорологических станциях:
Партнеры нашего сайта:      
Пояснения к столбцам:
  • Ветер - указаны скорость ветра в м/с - средняя за 10 мин, порывы в срок и между сроками (в фигурных скобках) и направление, откуда дует ветер: С - северный,
  • СВ - северо-восточный, В - восточный, ЮВ - юго-восточный, Ю - южный, ЮЗ - юго-западный, З - западный, СЗ - северо-западный.
  • Видимость - горизонтальная дальность видимости в метрах или километрах. При видимости от 1 до 10 км при отсутствии осадков обычно наблюдается дымка, при ухудшении видимости до 1 км и менее - туман. В сухую погоду видимость может ухудшаться дымом, пылью или мглою.
  • Явления - указаны атмосферные явления, наблюдавшиеся в срок или в последний час перед сроком; фигурными скобками обозначены явления, наблюдавшиеся между сроками (за 1-3 часа до срока); квадратными скобками обозначены град или гололедные отложения с указанием их диаметра в мм.
  • Облачность - указаны через наклонную черту общая и нижняя облачность в баллах и высота нижней границы облаков в метрах; квадратными скобками обозначены формы облаков: Ci - перистые, Cs - перисто-слоистые, Cc - перисто-кучевые, Ac - высококучевые, As - высокослоистые, Sc - слоисто-кучевые, Ns - слоисто-дождевые, Cu - кучевые, Cb - кучево-дождевые. Подробнее классификацию облаков см. в Атласе облаков (PDF).
  • T - Температура воздуха - температура, измеренная на высоте 2 м над землей.
  • Td - Температура точки росы - температура, при понижении до которой содержащийся в воздухе водяной пар достигнет насыщения.
  • f - Относительная влажность воздуха - влажноcть воздуха, измеренная на высоте 2 м над землей.
  • Te - Эффективная температура - температура, которую ощущает одетый по сезону человек в тени. Характеристика душности погоды. При расчете учитывается влияние влажности воздуха и скорости ветра на теплоощущения человека.
  • Tes - Эффективная температура на солнце - температура, которую ощущает человек, с поправкой на солнечный нагрев. Характеристика знойности погоды. Зависит от высоты солнца над горизонтом, облачности и скорости ветра. Ночью, в пасмурную погоду, а также при ветре 12 м/с и более поправка равна нулю.
  • P - Атмосферное давление - приведенное к уровню моря атмосферное давление.
  • Po - Атмосферное давление - измеренное на уровне метеостанции атмосферное давление.
  • Tmin - Минимальная температура - минимум температуры воздуха на высоте 2 м над землей.
  • Tmax - Максимальная температура - максимум температуры воздуха на высоте 2 м над землей.
  • R - Количество осадков - Количество выпавших осадков за период времени, мм. При наведении курсора мыши на число - период времени, за который выпало указанное количество осадков.
  • R24 - Количество осадков - Количество выпавших осадков за 24 часа, мм.
  • S - Снежный покров - Высота снежного покрова, см. При наведении курсора мыши на число - состояние снежного покрова и степень покрытия местности в баллах.